Home   Weather   Schwedt/Oder   Past weeks

Flag for Germany Past Weather in Schwedt/Oder, Brandenburg, Germany — Yesterday and Last 2 Weeks

50 °F

Broken clouds.

Feels Like: 47 °F
Forecast: 40 / 49 °F
Wind: 8 mph from West

Location: Szczecin Airport

Current Time: Oct 25, 2016 at 3:47:47 PM

Latest Report: Oct 25, 2016 at 3:00 PM

Visibility: N/A

Pressure: 30.12 "Hg

Humidity: 82%

Dew Point: 45 °F

Location of Schwedt/OderLocation

Past Weather in Schwedt/Oder — Graph


Schwedt/Oder Temperature Yesterday

Maximum temperature yesterday: 48 °F (at 12:30 PM)
Minimum temperature yesterday: 45 °F (at 12:00 AM)
Average temperature yesterday: 46 °F

High & Low Weather Summary for the Past Weeks

High52 °F (Oct 14, 2:30 PM)100% (Oct 10, 9:00 PM)30.36 "Hg (Oct 10, 9:00 PM)
Low32 °F (Oct 23, 4:30 AM)62% (Oct 14, 1:30 PM)29.89 "Hg (Oct 21, 6:00 AM)
Average45 °F90%30.11 "Hg
* Reported Oct 10 2:00 PM — Oct 25 2:30 PM, Schwedt/Oder, Weather by CustomWeather, © 2016

Note: Actual official high and low records may vary slightly from our data, if they occured in-between our weather recording intervals... More about our weather records


Schwedt/Oder Weather History for the Previous 24 Hours

Scroll right to see more
Time TempWeatherWind HumidityBarometerVisibility
2:30 PM
Tue, Oct 25
50 °FPartly sunny.9 mph82%30.12 "HgN/A
2:00 PM50 °FPartly sunny.7 mph88%30.12 "Hg5 mi
1:30 PM50 °FOvercast.7 mph88%30.12 "Hg4 mi
1:00 PM48 °FPartly sunny.7 mph94%30.12 "Hg4 mi
12:30 PM48 °FPartly sunny.6 mph94%30.12 "Hg4 mi
12:00 PM48 °FFog.6 mph94%30.12 "Hg3 mi
11:30 AM48 °FFog.6 mph94%30.09 "Hg2 mi
11:00 AM46 °FFog.5 mph100%30.09 "Hg2 mi
10:30 AM46 °FFog.3 mph93%30.09 "Hg2 mi
10:00 AM46 °FFog.3 mph93%30.09 "Hg1 mi
9:30 AM45 °FFog.5 mph100%30.09 "Hg1 mi
9:00 AM45 °FFog.5 mph100%30.07 "Hg1 mi
8:30 AM45 °FFog.3 mph100%30.07 "Hg1 mi
8:00 AM45 °FFog.3 mph100%30.04 "Hg1 mi
7:30 AM45 °FFog.3 mph100%30.04 "Hg1 mi
7:00 AM45 °FFog.1 mph100%30.04 "Hg1 mi
6:30 AM45 °FFog.2 mph100%30.04 "Hg1 mi
6:00 AM45 °FFog.1 mph100%30.04 "Hg1 mi
5:30 AM45 °FFog.2 mph100%30.01 "Hg1 mi
5:00 AM45 °FFog.3 mph100%30.01 "Hg1 mi
4:30 AM45 °FFog.3 mph100%30.01 "Hg2 mi
4:00 AM45 °FFog.5 mph100%30.01 "Hg2 mi
3:30 AM45 °FFog.3 mph100%30.04 "Hg2 mi
3:00 AM45 °FFog.5 mph100%30.04 "Hg2 mi
2:30 AM45 °FFog.5 mph100%30.04 "Hg2 mi
2:00 AM46 °FDrizzle. Fog.3 mph93%30.04 "Hg2 mi
1:30 AM46 °FDrizzle. Fog.3 mph93%30.04 "Hg2 mi
1:00 AM46 °FFog.5 mph93%30.04 "Hg2 mi
12:30 AM46 °FFog.6 mph93%30.04 "Hg3 mi
12:00 AM46 °FFog.7 mph93%30.04 "Hg3 mi
11:30 PM
Mon, Oct 24
46 °FFog.8 mph93%30.04 "Hg3 mi
11:00 PM46 °FFog.6 mph93%30.04 "Hg3 mi
10:30 PM46 °FFog.5 mph93%30.04 "Hg3 mi
10:00 PM46 °FFog.6 mph93%30.04 "Hg3 mi
9:30 PM46 °FFog.5 mph93%30.04 "Hg3 mi
9:00 PM46 °FFog.5 mph93%30.04 "Hg3 mi
8:30 PM46 °FFog.6 mph93%30.04 "Hg3 mi
8:00 PM46 °FFog.5 mph93%30.07 "Hg3 mi
7:30 PM46 °FFog.6 mph93%30.07 "Hg3 mi
7:00 PM46 °FFog.5 mph93%30.07 "Hg3 mi
6:30 PM45 °FFog.3 mph93%30.07 "Hg3 mi
6:00 PM46 °FClear.3 mph93%30.07 "Hg4 mi
5:30 PM46 °FPassing clouds.3 mph93%30.04 "Hg4 mi
5:00 PM48 °FPartly sunny.3 mph87%30.07 "Hg5 mi
4:30 PM48 °FPartly sunny.3 mph87%30.07 "Hg5 mi
4:00 PM48 °FBroken clouds.5 mph87%30.04 "Hg5 mi
3:30 PM48 °FPartly sunny.3 mph87%30.04 "Hg5 mi
3:00 PM48 °FBroken clouds.5 mph87%30.07 "Hg4 mi
Weather by CustomWeather, © 2016

See weather overviewHow to use our weather pages